Location: Unspecified
(0.0000°N, 0.0000°E)
Time: 23:44:42
(UTC+00:00)

S-56A Canister/Altair - Pass Details

Date: 08 October 2020
Orbit: 633 x 2499 km, 38.9° (Epoch: 28 October)

Event Time Altitude Azimuth Distance (km) Brightness Sun altitude
Rises 11:44:58 0° 291° (WNW) 5,154 11.7 83.8°
Reaches altitude 10° 11:51:48 10° 320° (NW) 4,598 11.6 83.7°
Maximum altitude 11:56:07 12° 339° (NNW) 4,641 11.6 83.5°
Drops below altitude 10° 12:00:45 10° 359° (N) 4,989 11.7 83.0°
Sets 12:09:20 0° 26° (NNE) 6,161 12.1 81.8°
